Regional Weather Roundup
Issued by NWS

Home | Current Version | Previous Version | Graphics & Text | Print | Product List | Glossary On
Versions: 1 2 3 4 5 6 7 8 9 10 11 12 13 14 15 16 17 18 19 20 21 22 23 24 25 26 27 28 29 30 31 32 33 34 35 36 37 38 39 40 41 42 43 44 45 46 47 48 49 50
675
ASUS43 KDMX 231406
RWRIA

WEATHER ROUNDUP FOR IOWA
NATIONAL WEATHER SERVICE DES MOINES IA
900 AM CDT FRI JUN 23 2017

NOTE: "FAIR" INDICATES FEW OR NO CLOUDS BELOW 12,000 FEET WITH NO
SIGNIFICANT WEATHER AND/OR OBSTRUCTIONS TO VISIBILITY.

* - THESE STATIONS ARE NOT NWS STATIONS...THUS NOT UNDER NWS
QUALITY CONTROL.  THEY ALSO DO NOT REPORT WEATHER SUCH
AS PRECIPITATION OR FOG.

IAZ001>003-012>014-020>022-031>034-043>046-231500-
   NORTHWEST IOWA

CITY           SKY/WX    TMP DP  RH WIND       PRES   REMARKS
CARROLL *      PTSUNNY   70  48  46 NW20G25   29.90S
CHEROKEE *     CLOUDY    62  51  68 NW12G17   29.94R
DENISON *      CLOUDY    64  48  55 NW13G21   29.95R
LE MARS *      CLOUDY    63  50  63 NW21G29   29.97R
ORANGE CITY *  CLOUDY    61  52  72 NW20G26   29.95R
SHELDON *      CLOUDY    61  50  67 NW21G29   29.93R
SIOUX CITY     CLOUDY    61  49  64 NW16G25   29.97R
SPENCER        CLOUDY    62  51  67 NW17G25   29.91R
STORM LAKE *   CLOUDY    63  48  59 N18G25    29.93R
$$

IAZ055>058-069>071-079>083-090>094-231500-
   SOUTHWEST IOWA

CITY           SKY/WX    TMP DP  RH WIND       PRES   REMARKS
ATLANTIC *     PTSUNNY   66  55  68 NW9       29.92R
AUDUBON *      CLOUDY    66  52  59 NW13      29.92R
CLARINDA *     SUNNY     72  52  49 N16       29.92S
COUNCIL BLFS * CLOUDY    66  52  59 NW12G18   29.95R
CRESTON *      SUNNY     72  52  49 N9        29.91S
HARLAN  *      CLOUDY    66  50  55 N10G18    29.96R
LAMONI         MOSUNNY   71  62  73 N15       29.86R
RED OAK *      CLOUDY    70  57  64 VRB5      29.92R
SHENANDOAH *   PTSUNNY   68  55  64 N9        29.92R
$$

IAZ047>049-059>061-072>074-084-231500-
   CENTRAL IOWA

CITY           SKY/WX    TMP DP  RH WIND       PRES   REMARKS
AMES           SUNNY     72  56  57 NW14      29.86S
ANKENY *       SUNNY     72  55  56 N7        29.86F
BOONE *        SUNNY     70  54  56 NW13      29.86F
CHARITON *     MOSUNNY   70  64  83 NW13G21   29.85S
DES MOINES     MOSUNNY   73  56  54 N5        29.85F
GRINNELL*      MOSUNNY   69  61  75 NW10      29.86R
KNOXVILLE *    MOSUNNY   68  63  83 NW14      29.85R
MARSHALLTOWN   SUNNY     70  59  68 W9        29.84S
NEWTON *       MOSUNNY   70  59  68 NW9G15    29.85S
PELLA *        MOSUNNY   70  63  79 NW9       29.86S
PERRY *          N/A     69  58  67 NW7       29.87F
$$

IAZ004>006-015-016-023>025-035-036-231500-
   NORTH CENTRAL IOWA

CITY           SKY/WX    TMP DP  RH WIND       PRES   REMARKS
ALGONA *       CLOUDY    64  50  59 N15G23    29.88S
CLARION *        N/A     64  54  68 N14       29.86S
ESTHERVILLE    CLOUDY    61  53  75 NW14G22   29.89R
FORT DODGE *   PTSUNNY   64  52  63 NW9G16    29.89S
MASON CITY     SUNNY     65  51  60 NW16      29.86R
FOREST CITY *    N/A     64  45  48 NW10G20   29.86S
WEBSTER CITY * MOSUNNY   66  52  59 NW15      29.85S
IOWA FALLS *     N/A     69  56  63 NW10      29.87R
$$

IAZ007>011-017>019-026>030-037>042-050>054-066-231500-
   NORTHEAST IOWA

CITY           SKY/WX    TMP DP  RH WIND       PRES   REMARKS
CEDAR RAPIDS   MOSUNNY   70  67  90 NW13      29.81R
CHARLES CITY * SUNNY     68  57  68 W14G21    29.82S
CLINTON *      CLOUDY    69  63  81 N7        29.78R
DECORAH *      SUNNY     68  61  77 VRB6      29.79R
DUBUQUE        CLOUDY    69  62  78 NW8       29.79R
MONTICELLO *   CLOUDY    70  64  83 NW9       29.80R
OELWEIN *      SUNNY     70  63  78 W10       29.82R
WATERLOO       SUNNY     70  59  68 W7        29.81S
$$

IAZ064-065-067-068-078-231500-
   EAST CENTRAL IOWA

CITY           SKY/WX    TMP DP  RH WIND       PRES   REMARKS
DAVENPORT      CLOUDY    70  61  73 N8        29.78R
IOWA CITY      PTSUNNY   72  64  76 NW6       29.81R
MT. PLEASANT * CLOUDY    69  65  86 N13       29.79S
MUSCATINE *    CLOUDY    70  63  78 N7        29.79R
QUAD CITIES    CLOUDY    71  61  70 N6        29.76R
$$

IAZ062-063-075>077-085>089-095>099-231500-
   SOUTHEAST IOWA

CITY           SKY/WX    TMP DP  RH WIND       PRES   REMARKS
BURLINGTON     CLOUDY    70  66  87 N12       29.76R
FAIRFIELD *    PTSUNNY   70  64  83 N13       29.81R
FORT MADISON * CLOUDY    70  66  88 N13       29.77R
KEOKUK *       CLOUDY    70  66  88 N13G22    29.75R
OSKALOOSA *      N/A     71  65  83 N7        29.82F
CENTERVILLE *    N/A     72  66  83 N3        29.84S
OTTUMWA        MOSUNNY   73  67  81 N13       29.80F
WASHINGTON *   CLOUDY    70  64  83 N10       29.82R
$$

ABBREVIATIONS USED IN REMARKS
   TC - TEMPERATURES IN CELSIUS
  WCI - WIND CHILL INDEX
   HX - HEAT INDEX
  VSB - VISIBILITY
$$





USA.gov is the U.S. government's official web portal to all federal, state and local government web resources and services.